[[{"header":{"parameterUnit":"m.s-1","parameterCategory":1,"la1":30.2991,"la2":30.254,"lo1":-89.0895,"lo2":-89.0444,"dy":0.0017,"dx":0.0017,"nx":28,"ny":28,"refTime":"2024-04-08T21:00:00:Z","depth":0,"parameterNumber":2,"parameterNumberName":"U-component_of_WINDS"},"data":[0,0,0,0,0,0,0,0,0,0,0,0,0,0,0,0,0,0,0,0,0,0,0,0,0,0,0,0,0,0,0,0,0,0,0,0,0,0,0,0,0,0,0,0,0,0,0,0,0,0,0,0,0,0,0,0,0,0,-4.4219,-4.422,0,-4.4365,-4.4367,-4.4369,-4.4414,-4.4413,-4.4412,-4.4412,-4.456,-4.4565,-4.4569,0,0,0,0,0,0,0,0,0,0,0,0,0,-4.3978,-4.3982,-4.4219,-4.422,-4.4222,-4.4365,-4.4367,-4.4369,-4.4414,-4.4413,-4.4412,-4.4411,-4.4559,-4.4564,-4.457,0,0,0,0,0,0,0,0,0,0,0,0,0,-4.4099,-4.3983,-4.4218,-4.4262,-4.4267,-4.4365,-4.4367,-4.437,-4.4414,-4.4413,-4.4412,-4.4411,-4.4557,-4.4564,-4.4571,-4.4635,0,0,-4.4592,-4.4595,0,0,0,0,0,0,0,0,-4.4092,-4.4108,-4.4254,-4.4259,-4.4265,-4.437,-4.4337,-4.4459,-4.4414,-4.4358,-4.4412,-4.441,-4.4498,-4.451,-4.4539,-4.4642,-4.4648,-4.4592,-4.4597,-4.46,-4.4602,0,0,0,0,0,0,0,-4.4084,-4.4102,-4.4277,-4.4256,-4.4263,-4.4274,-4.429,-4.436,-4.4432,-4.4363,-4.4367,-4.4384,-4.4501,-4.4533,-4.4543,-4.465,-4.4592,-4.4598,-4.4603,-4.4605,-4.4815,-4.4816,0,0,0,0,0,0,-4.4068,-4.4095,-4.4272,-4.4281,-4.4174,-4.428,-4.4297,-4.4338,-4.4432,-4.4445,-4.4384,-4.4385,-4.4521,-4.4535,-4.4549,-4.4631,-4.46,-4.4606,-4.461,-4.4813,-4.4815,-4.4817,0,0,0,0,0,0,-4.4063,-4.4083,-4.4266,-4.4189,-4.4213,-4.4285,-4.433,-4.4341,-4.4373,-4.4448,-4.4461,-4.4403,-4.4521,-4.4539,-4.4614,-4.4636,-4.4609,-4.4615,-4.4812,-4.4814,-4.4816,-4.4794,0,0,0,0,0,0,-4.4055,-4.4081,-4.4106,-4.4189,-4.4217,-4.4328,-4.4331,-4.4345,-4.4385,-4.4387,-4.4469,-4.4482,-4.4522,-4.4603,-4.462,-4.4645,-4.4621,-4.481,-4.4813,-4.4815,-4.4793,-4.4795,-4.4797,0,0,0,0,0,-4.4047,-4.4093,-4.4107,-4.4128,-4.4249,-4.4329,-4.4345,-4.4391,-4.4386,-4.4412,-4.4461,-4.4479,-4.4632,-4.461,-4.463,-4.4657,-4.4809,-4.4812,-4.4815,-4.4792,-4.4795,-4.4797,0,0,0,0,0,0,-4.4009,-4.4105,-4.4121,-4.4196,-4.4254,-4.4337,-4.437,-4.4392,-4.4452,-4.4452,-4.4505,-4.4524,-4.4594,-4.4634,-4.4608,-4.4726,-4.4721,-4.4728,-4.4697,-4.47,-4.4702,-4.469,-4.4627,0,0,0,0,0,-4.401,-4.4067,-4.4148,-4.4206,-4.4235,-4.4297,-4.4334,-4.4364,-4.4427,-4.4451,-4.4505,-4.4565,-4.4627,-4.4666,-4.4727,-4.48,-4.4819,-4.4829,-4.4831,-4.4832,-4.4837,-4.488,-4.4886,-4.4827,-4.4827,-4.4827,0,0,-4.4011,-4.4071,-4.4103,-4.42,-4.4249,-4.4307,-4.4318,-4.4378,-4.4422,-4.446,-4.4534,-4.4576,-4.4647,-4.4721,-4.4757,-4.4756,-4.4858,-4.4836,-4.4837,-4.4841,-4.4884,-4.4889,-4.4894,-4.4829,-4.4829,-4.4828,0,0,-4.4043,-4.4094,-4.4149,-4.4198,-4.4273,-4.4315,-4.4328,-4.4408,-4.4438,-4.4513,-4.4544,-4.4597,-4.4702,-4.4751,-4.479,-4.4844,-4.4863,-4.4863,-4.4872,-4.4913,-4.4918,-4.4922,-4.4941,-4.4947,-4.4868,-4.4868,-4.4868,0,-4.4035,-4.4124,-4.4174,-4.4234,-4.4275,-4.4315,-4.4371,-4.4417,-4.4507,-4.4535,-4.4533,-4.4667,-4.4717,-4.4804,-4.4818,-4.4848,-4.4865,-4.4852,-4.4913,-4.4918,-4.4923,-4.4941,-4.4949,-4.4867,-4.4867,-4.4867,-4.4867,0,-4.4111,-4.4172,-4.4207,-4.4295,-4.4341,-4.4398,-4.4457,-4.4498,-4.4525,-4.4568,-4.4645,-4.4707,-4.4782,-4.4805,-4.4832,-4.4897,-4.4894,-4.4903,-4.4898,-4.4927,-4.4945,-4.4953,-4.4866,-4.4866,-4.4867,-4.4867,0,0,-4.412,-4.4237,-4.4248,-4.4289,-4.4376,-4.4424,-4.4484,-4.4558,-4.4592,-4.4654,-4.4706,-4.4795,-4.4804,-4.4848,-4.4881,-4.4918,-4.4957,-4.4922,-4.4924,-4.4925,-4.5033,-4.5024,-4.5032,-4.4971,-4.4973,-4.4974,-4.5026,0,-4.4163,-4.4271,-4.4319,-4.4406,-4.4464,-4.4504,-4.4556,-4.4615,-4.4657,-4.4713,-4.4759,-4.4822,-4.4829,-4.4856,-4.4894,-4.4944,-4.4979,-4.4941,-4.5019,-4.5021,-4.4998,-4.5042,-4.5033,-4.5079,-4.5034,-4.5035,-4.5036,0,-4.4226,-4.4289,-4.4381,-4.4463,-4.4489,-4.4535,-4.4608,-4.466,-4.4729,-4.4757,-4.4808,-4.484,-4.4905,-4.4899,-4.4989,-4.4963,-4.4998,-4.5028,-4.5031,-4.5038,-4.5029,-4.5049,-4.5095,-4.5101,-4.5048,-4.5047,-4.5046,0,-4.4222,-4.4331,-4.4401,-4.4434,-4.4531,-4.4563,-4.4605,-4.4672,-4.4714,-4.4778,-4.4806,-4.4876,-4.4915,-4.4969,-4.5019,-4.501,-4.5106,-4.5103,-4.513,-4.5129,-4.5147,-4.5144,-4.5197,-4.5172,-4.5172,-4.5172,-4.5172,0,-4.4264,-4.4318,-4.4401,-4.4443,-4.4507,-4.4562,-4.4624,-4.4668,-4.4729,-4.4781,-4.4821,-4.4869,-4.4934,-4.4991,-4.5032,-4.5101,-4.5118,-4.5142,-4.5152,-4.5138,-4.5135,-4.516,-4.5158,-4.5174,-4.5173,-4.5173,-4.5173,0,-4.4269,-4.4327,-4.4406,-4.4492,-4.4515,-4.4558,-4.4631,-4.4675,-4.472,-4.4786,-4.4805,-4.4876,-4.4945,-4.5002,-4.5092,-4.512,-4.5192,-4.5204,-4.5168,-4.5173,-4.5197,-4.5194,-4.5267,-4.5279,-4.5247,-4.5247,-4.5247,0,-4.4291,-4.4335,-4.4426,-4.4464,-4.4506,-4.4567,-4.4611,-4.4668,-4.4712,-4.4795,-4.4828,-4.4901,-4.4961,-4.507,-4.513,-4.52,-4.5213,-4.5234,-4.5224,-4.5209,-4.5213,-4.5209,-4.5213,-4.5234,-4.5234,-4.5234,-4.5234,0,-4.4323,-4.435,-4.4412,-4.4484,-4.4535,-4.4594,-4.4654,-4.4684,-4.4752,-4.48,-4.4871,-4.4919,-4.5012,-4.5084,-4.5161,-4.5204,-4.5231,-4.5238,-4.5248,-4.5232,-4.521,-4.5222,-4.517,-4.5235,-4.5235,-4.5235,-4.5235,-4.5235,-4.4338,-4.4378,-4.445,-4.4517,-4.4569,-4.4625,-4.467,-4.4722,-4.4783,-4.4864,-4.4894,-4.4968,-4.5038,-4.5144,-4.5188,-4.5247,-4.5249,-4.5264,-4.5267,-4.5269,-4.5267,-4.5202,-4.5261,-4.5261,-4.5261,-4.5261,-4.5261,0,-4.4371,-4.442,-4.4481,-4.4565,-4.4619,-4.4641,-4.4709,-4.4752,-4.4817,-4.488,-4.4939,-4.5022,-4.5093,-4.5159,-4.5233,-4.5267,-4.5281,-4.5284,-4.5281,-4.5291,-4.5261,-4.5244,-4.5272,-4.5272,-4.5272,-4.5272,-4.5272,-4.5272,-4.4395,-4.4465,-4.4501,-4.4598,-4.4647,-4.4719,-4.4756,-4.4809,-4.4859,-4.495,-4.5009,-4.5052,-4.5117,-4.5196,-4.5262,-4.528,-4.5305,-4.5304,-4.5325,-4.5295,-4.5293,-4.5291,-4.5276,-4.531,-4.531,-4.535,-4.5351,-4.5351]},{"header":{"parameterUnit":"m.s-1","parameterCategory":1,"la1":30.2991,"la2":30.254,"lo1":-89.0895,"lo2":-89.0444,"dy":0.0017,"dx":0.0017,"nx":28,"ny":28,"refTime":"2024-04-08T21:00:00:Z","depth":0,"parameterNumber":3,"parameterNumberName":"V-component_of_WINDS"},"data":[0,0,0,0,0,0,0,0,0,0,0,0,0,0,0,0,0,0,0,0,0,0,0,0,0,0,0,0,0,0,0,0,0,0,0,0,0,0,0,0,0,0,0,0,0,0,0,0,0,0,0,0,0,0,0,0,0,0,2.9223,2.9222,0,2.9203,2.9203,2.9203,2.9209,2.9209,2.9209,2.921,2.9184,2.9183,2.9182,0,0,0,0,0,0,0,0,0,0,0,0,0,2.9262,2.9261,2.9223,2.9222,2.9222,2.9203,2.9203,2.9203,2.9208,2.9209,2.9209,2.921,2.9184,2.9183,2.9182,0,0,0,0,0,0,0,0,0,0,0,0,0,2.9244,2.9261,2.9223,2.9223,2.9223,2.9203,2.9203,2.9203,2.9208,2.9209,2.921,2.921,2.9185,2.9183,2.9181,2.9159,0,0,2.9176,2.9176,0,0,0,0,0,0,0,0,2.9245,2.9242,2.9223,2.9223,2.9223,2.9209,2.9207,2.9188,2.9208,2.9214,2.921,2.921,2.9191,2.9189,2.9184,2.9157,2.9156,2.9176,2.9175,2.9175,2.9174,0,0,0,0,0,0,0,2.9246,2.9243,2.9215,2.9223,2.9223,2.9223,2.9221,2.9204,2.9199,2.9213,2.9214,2.9212,2.9191,2.9185,2.9183,2.9156,2.9176,2.9175,2.9174,2.9173,2.9113,2.9113,0,0,0,0,0,0,2.9248,2.9244,2.9215,2.9214,2.9236,2.9222,2.922,2.9213,2.9199,2.9198,2.9211,2.9212,2.9188,2.9185,2.9182,2.9157,2.9175,2.9173,2.9172,2.9114,2.9113,2.9113,0,0,0,0,0,0,2.9249,2.9245,2.9216,2.9229,2.9226,2.9221,2.9213,2.9212,2.9206,2.9198,2.9196,2.9206,2.9188,2.9185,2.9166,2.9156,2.9172,2.9171,2.9115,2.9114,2.9113,2.9105,0,0,0,0,0,0,2.925,2.9246,2.9237,2.9229,2.9225,2.9201,2.9212,2.9211,2.9204,2.9205,2.9193,2.9191,2.9189,2.9168,2.9164,2.9154,2.917,2.9116,2.9114,2.9113,2.9106,2.9104,2.9102,0,0,0,0,0,2.9251,2.9234,2.9237,2.9233,2.9215,2.92,2.9197,2.9196,2.9203,2.9195,2.919,2.9192,2.9158,2.9166,2.9162,2.9151,2.9116,2.9115,2.9113,2.9107,2.9104,2.9102,0,0,0,0,0,0,2.9237,2.9232,2.9236,2.9215,2.9209,2.9201,2.919,2.9193,2.9182,2.9183,2.9181,2.9178,2.9159,2.9153,2.9162,2.913,2.9138,2.9136,2.9135,2.9132,2.913,2.9132,2.9168,0,0,0,0,0,2.9233,2.9223,2.9218,2.92,2.9197,2.9195,2.9188,2.9188,2.918,2.9176,2.917,2.916,2.9148,2.914,2.9128,2.9106,2.9104,2.9096,2.9095,2.9093,2.9091,2.9081,2.9078,2.9108,2.9108,2.9108,0,0,2.9221,2.9217,2.921,2.9198,2.9192,2.9182,2.9192,2.9178,2.917,2.9174,2.9157,2.9152,2.9141,2.9122,2.9112,2.9116,2.9083,2.9091,2.909,2.9089,2.9079,2.9077,2.9074,2.9107,2.9107,2.9107,0,0,2.9196,2.9191,2.9178,2.9173,2.9167,2.9166,2.9163,2.9156,2.9153,2.9137,2.914,2.913,2.9108,2.9102,2.9095,2.9072,2.9074,2.9068,2.9057,2.9048,2.9046,2.9043,2.9036,2.9034,2.9066,2.9066,2.9066,0,2.9182,2.9167,2.917,2.9158,2.9153,2.9159,2.9145,2.914,2.9129,2.9125,2.913,2.9106,2.9098,2.9079,2.9074,2.9068,2.9064,2.9069,2.9046,2.9044,2.9042,2.9035,2.9033,2.9065,2.9065,2.9065,2.9065,0,2.9151,2.9141,2.9131,2.9124,2.9117,2.9104,2.9105,2.9098,2.91,2.9099,2.9083,2.9076,2.9064,2.9059,2.9059,2.904,2.9043,2.9047,2.9054,2.9039,2.9032,2.903,2.9065,2.9065,2.9065,2.9065,0,0,2.9113,2.9111,2.9107,2.9106,2.9101,2.9092,2.908,2.9072,2.9067,2.9059,2.905,2.9034,2.9039,2.9032,2.9032,2.9023,2.9008,2.9029,2.9029,2.9026,2.8988,2.8986,2.8983,2.901,2.9009,2.9009,2.899,0,2.9088,2.907,2.9074,2.9055,2.9047,2.9055,2.9045,2.904,2.9039,2.9031,2.903,2.9019,2.9026,2.9022,2.9014,2.9011,2.9,2.9013,2.9,2.9,2.9003,2.8979,2.8975,2.8958,2.8987,2.8987,2.8986,0,2.9055,2.9051,2.9033,2.9033,2.9029,2.902,2.9014,2.9007,2.9003,2.9003,2.8997,2.9,2.8988,2.8998,2.8982,2.8991,2.8986,2.8984,2.8984,2.8982,2.8992,2.8977,2.8952,2.8949,2.8982,2.8983,2.8983,0,2.9032,2.9021,2.9009,2.9007,2.9006,2.9,2.8999,2.8996,2.8992,2.8986,2.8983,2.8975,2.8971,2.8965,2.8965,2.8972,2.895,2.8959,2.895,2.895,2.8944,2.8944,2.8918,2.8941,2.8941,2.8941,2.8941,0,2.9003,2.8992,2.8999,2.8992,2.898,2.8985,2.8973,2.8973,2.8971,2.8963,2.8969,2.8961,2.8963,2.8955,2.8956,2.8944,2.8941,2.8941,2.8941,2.8941,2.8941,2.8937,2.8939,2.894,2.894,2.8941,2.8941,0,2.8974,2.8978,2.8967,2.8968,2.8969,2.896,2.8961,2.8954,2.8955,2.8946,2.8944,2.8945,2.8938,2.8939,2.8928,2.8929,2.8915,2.8916,2.8917,2.8917,2.8909,2.891,2.8879,2.8876,2.8901,2.89,2.89,0,2.8955,2.8947,2.895,2.8947,2.8946,2.8941,2.8938,2.8943,2.8939,2.8936,2.893,2.8924,2.8919,2.8906,2.8905,2.8899,2.89,2.889,2.8899,2.89,2.8901,2.8902,2.8902,2.8888,2.8887,2.8887,2.8887,0,2.8922,2.8926,2.8923,2.8921,2.8918,2.8916,2.8914,2.8911,2.8916,2.8912,2.8906,2.8902,2.8895,2.8888,2.8883,2.8881,2.8885,2.8885,2.8882,2.8881,2.8883,2.8883,2.8913,2.8885,2.8885,2.8885,2.8885,2.8885,2.8898,2.8893,2.8895,2.8892,2.8892,2.8891,2.8886,2.8889,2.8884,2.8881,2.8884,2.8877,2.8876,2.8869,2.8867,2.8862,2.8865,2.8861,2.8861,2.886,2.886,2.8885,2.886,2.886,2.8861,2.8861,2.8861,0,2.8867,2.887,2.8867,2.8867,2.8864,2.8872,2.8871,2.8868,2.8863,2.8862,2.8859,2.8853,2.8848,2.8849,2.8844,2.884,2.8842,2.8838,2.8839,2.8838,2.8856,2.8859,2.8837,2.8837,2.8837,2.8837,2.8837,2.8837,2.8851,2.8843,2.8848,2.884,2.8843,2.8838,2.8838,2.8838,2.8838,2.8832,2.8829,2.883,2.8831,2.8827,2.8823,2.8823,2.8821,2.8817,2.8818,2.8834,2.8837,2.8839,2.8842,2.8817,2.8817,2.8802,2.8801,2.8801]}]]